sat.trackr.live / text

‹ back to catalog

STARLINK-36890

NORAD 68258 · 2026-054AC

PAYLOAD ACTIVE UNKNOWN

§ Identity

Operator
Country
US
Launch date
2026-03-17
Launch site
AFETR
Launch vehicle
Mass (kg)
RCS (m²)

Purposes: comms

External: N2YO · Heavens-Above · Gunter

§ Orbital elements

Epoch: 2026-05-24T15:42:39.314880Z

Period
94.11 min
Inclination
53.1577°
Eccentricity
0.0000894
Mean motion
15.30201826 rev/d
Perigee alt
474.6 km
Apogee alt
475.8 km
Semi-major
6,853.3 km
B*
4.4145e-4
RAAN
303.9536°
Arg perigee
48.8936°
Mean anomaly
311.2141°
Rev number
1,062

§ Raw data

STARLINK-368901 68258U 26054AC  26144.65462170  .00012739  00000+0  44145-3 0  99962 68258  53.1577 303.9536 0000894  48.8936 311.2141 15.30201826 10627

JSON: /api/v1/satellites/68258 · /tle

For live sub-satellite position, see the globe view (requires WebGL).

§ Visibility from observer

Set your observer location to see the next 7 days of passes ≥ 10°. The values pass through the URL so the page stays shareable.

No JS? Fill the form by hand. The geolocation button needs JavaScript.